ONEWEB-0266 (48984 NORAD) Tracking and Keplerian Element Data

This shows tracking and keplerian element data for the satellite.

Feedback or suggestion? Click here.




ElementValue
Catalog48984
NameONEWEB-0266
Epoch Orbit1292
Epoch Day262.25001157
Epoch Year2021
RAAN213.3995
Inclination87.7943
Eccentricity0.0012578
Argument of Perigee12.9202
Mean Anonmoly287.5623
Mean Motion13.56080461
Decay Rate1.4E-07
L11 48984U 21060T 21262.25001157 .00000014 00000-0 00000+0 0 9990
L22 48984 87.7943 213.3995 0012578 12.9202 287.5623 13.56080461 12925

Live tracking and technical data element details for ONEWEB-0266 (NORAD 48984). ONEWEB-0266 can be tracked NOW for your location showing map with azimuth and elevation plus other details from your city location.

Track the satellite on the map from your city or location and see movement details for azimuth, elevation, latitude, longitude, range, height, and movement on the map or in text.







IsCatalogInMostPopularTable: catalog: 48984, numindb: 19
Update: records affected: 1



GetName: 48984 ONEWEB-0266

Hit Count: updated at: Fri, 24 Sep 2021 18:15:36 GMT